| time (UTC) | temp F | wind direction | speed knots | gust knots | rain 1hr in | rain 24hr in | rain mn in | humidity % | barometer mb |
| 20260504130338 | 73 | 0 | 0.0 | 0.0 | 0.00 | 0.00 | 0.00 | 10 | 1011.0 |
| 20260504110335 | 73 | 112 | 0.9 | 3.5 | 0.00 | 0.00 | 0.00 | 75 | 1010.0 |
| 20260504100333 | 76 | 138 | 1.7 | 3.5 | 0.00 | 0.00 | 0.00 | 75 | 1010.0 |
| 20260504081330 | 74 | 135 | 2.6 | 3.5 | 0.00 | 0.00 | 0.00 | 74 | 1010.0 |
| 20260504080330 | 75 | 135 | 2.6 | 3.5 | 0.00 | 0.00 | 0.00 | 74 | 1010.0 |
| 20260504070328 | 74 | 93 | 2.6 | 4.3 | 0.00 | 0.00 | 0.00 | 72 | 1011.0 |
| 20260504050324 | 79 | 55 | 1.7 | 2.6 | 0.00 | 0.00 | 0.00 | 68 | 1012.0 |
| 20260504045324 | 76 | 332 | 2.6 | 6.1 | 0.00 | 0.00 | 0.00 | 67 | 1012.0 |
| 20260504044324 | 77 | 332 | 2.6 | 6.1 | 0.00 | 0.00 | 0.00 | 67 | 1012.0 |
| 20260504043323 | 78 | 332 | 2.6 | 6.1 | 0.00 | 0.00 | 0.00 | 67 | 1012.0 |
| 20260504042323 | 79 | 332 | 2.6 | 6.1 | 0.00 | 0.00 | 0.00 | 67 | 1012.0 |
| 20260504041323 | 75 | 299 | 2.6 | 4.3 | 0.00 | 0.00 | 0.00 | 66 | 1012.0 |
| 20260504040322 | 76 | 299 | 2.6 | 4.3 | 0.00 | 0.00 | 0.00 | 66 | 1012.0 |
| 20260504035322 | 77 | 299 | 2.6 | 4.3 | 0.00 | 0.00 | 0.00 | 66 | 1012.0 |
| 20260504034322 | 78 | 299 | 2.6 | 4.3 | 0.00 | 0.00 | 0.00 | 66 | 1012.0 |
| 20260504033321 | 79 | 299 | 2.6 | 4.3 | 0.00 | 0.00 | 0.00 | 66 | 1012.0 |
| 20260504032321 | 80 | 299 | 2.6 | 4.3 | 0.00 | 0.00 | 0.00 | 66 | 1011.0 |
| 20260504031320 | 81 | 299 | 2.6 | 5.2 | 0.00 | 0.00 | 0.00 | 66 | 1011.0 |
| 20260504030320 | 81 | 299 | 2.6 | 5.2 | 0.00 | 0.00 | 0.00 | 66 | 1011.0 |
| 20260504025320 | 75 | 269 | 0.9 | 4.3 | 0.00 | 0.00 | 0.00 | 66 | 1011.0 |
| 20260504024320 | 76 | 269 | 0.9 | 4.3 | 0.00 | 0.00 | 0.00 | 66 | 1011.0 |
| 20260504023319 | 77 | 269 | 0.9 | 4.3 | 0.00 | 0.00 | 0.00 | 66 | 1011.0 |
| 20260504022319 | 78 | 269 | 0.9 | 4.3 | 0.00 | 0.00 | 0.00 | 66 | 1011.0 |
| 20260504021319 | 79 | 269 | 0.9 | 4.3 | 0.00 | 0.00 | 0.00 | 66 | 1011.0 |
| 20260504020318 | 80 | 269 | 0.9 | 4.3 | 0.00 | 0.00 | 0.00 | 66 | 1011.0 |
| 20260504015318 | 81 | 269 | 1.7 | 5.2 | 0.00 | 0.00 | 0.00 | 66 | 1011.0 |
| 20260504014318 | 76 | 212 | 7.0 | 7.0 | 0.00 | 0.00 | 0.00 | 57 | 1011.0 |
| 20260504013317 | 77 | 212 | 7.0 | 7.0 | 0.00 | 0.00 | 0.00 | 57 | 1011.0 |
| 20260504012317 | 78 | 212 | 7.0 | 7.0 | 0.00 | 0.00 | 0.00 | 57 | 1010.0 |
| 20260504011316 | 79 | 212 | 7.0 | 7.0 | 0.00 | 0.00 | 0.00 | 57 | 1010.0 |
| 20260504010316 | 79 | 212 | 7.0 | 7.0 | 0.00 | 0.00 | 0.00 | 57 | 1010.0 |
| 20260504004315 | 80 | 212 | 7.0 | 7.0 | 0.00 | 0.00 | 0.00 | 57 | 1010.0 |
| 20260504003315 | 81 | 212 | 7.0 | 7.0 | 0.00 | 0.00 | 0.00 | 57 | 1009.0 |
| 20260504002315 | 82 | 212 | 7.0 | 7.0 | 0.00 | 0.00 | 0.00 | 57 | 1009.0 |
| 20260504001315 | 83 | 212 | 7.0 | 7.0 | 0.00 | 0.00 | 0.00 | 57 | 1009.0 |
| 20260504000314 | 84 | 212 | 7.0 | 7.0 | 0.00 | 0.00 | 0.00 | 57 | 1009.0 |
| 20260503235314 | 85 | 212 | 7.0 | 7.0 | 0.00 | 0.00 | 0.00 | 57 | 1009.0 |
| 20260503234314 | 86 | 212 | 7.0 | 7.0 | 0.00 | 0.00 | 0.00 | 57 | 1009.0 |
| 20260503233314 | 87 | 212 | 7.0 | 7.0 | 0.00 | 0.00 | 0.00 | 57 | 1007.0 |
| 20260503232313 | 88 | 212 | 7.0 | 7.0 | 0.00 | 0.00 | 0.00 | 57 | 1007.0 |
| 20260503231313 | 89 | 212 | 7.0 | 7.8 | 0.00 | 0.00 | 0.00 | 57 | 1007.0 |
| 20260503230312 | 80 | 211 | 7.0 | 6.1 | 0.00 | 0.00 | 0.00 | 54 | 1007.0 |
| 20260503225312 | 81 | 211 | 7.0 | 6.1 | 0.00 | 0.00 | 0.00 | 54 | 1007.0 |
| 20260503224312 | 82 | 211 | 7.0 | 6.1 | 0.00 | 0.00 | 0.00 | 54 | 1007.0 |
| 20260503223312 | 83 | 211 | 7.0 | 6.1 | 0.00 | 0.00 | 0.00 | 54 | 1007.0 |
| 20260503222311 | 84 | 211 | 7.0 | 6.1 | 0.00 | 0.00 | 0.00 | 54 | 1007.0 |
| 20260503221311 | 85 | 211 | 7.0 | 6.1 | 0.00 | 0.00 | 0.00 | 54 | 1007.0 |
| 20260503220311 | 86 | 211 | 7.0 | 6.1 | 0.00 | 0.00 | 0.00 | 54 | 1007.0 |
| 20260503215310 | 87 | 211 | 7.0 | 6.1 | 0.00 | 0.00 | 0.00 | 54 | 1007.0 |
| 20260503214310 | 88 | 211 | 7.0 | 6.1 | 0.00 | 0.00 | 0.00 | 54 | 1007.0 |
| 20260503213310 | 89 | 211 | 7.0 | 6.1 | 0.00 | 0.00 | 0.00 | 54 | 1007.0 |
| 20260503212309 | 84 | 224 | 7.0 | 7.0 | 0.00 | 0.00 | 0.00 | 50 | 1008.0 |
| 20260503211309 | 85 | 224 | 7.0 | 7.0 | 0.00 | 0.00 | 0.00 | 50 | 1008.0 |
| 20260503210308 | 86 | 224 | 7.0 | 7.0 | 0.00 | 0.00 | 0.00 | 50 | 1008.0 |
| 20260503205308 | 87 | 224 | 7.0 | 7.0 | 0.00 | 0.00 | 0.00 | 50 | 1008.0 |
| 20260503204307 | 88 | 224 | 7.0 | 7.0 | 0.00 | 0.00 | 0.00 | 50 | 1008.0 |
| 20260503203307 | 88 | 224 | 7.0 | 7.0 | 0.00 | 0.00 | 0.00 | 50 | 1008.0 |
| 20260503202307 | 89 | 224 | 7.8 | 7.0 | 0.00 | 0.00 | 0.00 | 50 | 1009.0 |
| 20260503201307 | 84 | 232 | 7.0 | 7.0 | 0.00 | 0.00 | 0.00 | 50 | 1009.0 |
| 20260503200306 | 85 | 232 | 7.0 | 7.0 | 0.00 | 0.00 | 0.00 | 50 | 1009.0 |
| 20260503195306 | 86 | 232 | 7.0 | 7.0 | 0.00 | 0.00 | 0.00 | 50 | 1009.0 |
| 20260503194305 | 87 | 232 | 7.0 | 7.0 | 0.00 | 0.00 | 0.00 | 50 | 1009.0 |
| 20260503193305 | 88 | 232 | 7.0 | 7.0 | 0.00 | 0.00 | 0.00 | 50 | 1009.0 |
| 20260503192305 | 89 | 232 | 7.0 | 7.0 | 0.00 | 0.00 | 0.00 | 50 | 1010.0 |
| 20260503191304 | 90 | 232 | 7.8 | 7.0 | 0.00 | 0.00 | 0.00 | 50 | 1010.0 |
| 20260503190304 | 85 | 220 | 4.3 | 4.3 | 0.00 | 0.00 | 0.00 | 54 | 1010.0 |
| 20260503185305 | 86 | 220 | 4.3 | 4.3 | 0.00 | 0.00 | 0.00 | 54 | 1010.0 |
| 20260503184303 | 87 | 220 | 4.3 | 4.3 | 0.00 | 0.00 | 0.00 | 54 | 1010.0 |
| 20260503183303 | 88 | 220 | 4.3 | 4.3 | 0.00 | 0.00 | 0.00 | 54 | 1010.0 |
| 20260503182305 | 89 | 220 | 4.3 | 4.3 | 0.00 | 0.00 | 0.00 | 54 | 1011.0 |
| 20260503181302 | 90 | 220 | 5.2 | 4.3 | 0.00 | 0.00 | 0.00 | 54 | 1011.0 |
| 20260503180302 | 85 | 217 | 0.9 | 4.3 | 0.00 | 0.00 | 0.00 | 55 | 1011.0 |
| 20260503175304 | 86 | 217 | 0.9 | 4.3 | 0.00 | 0.00 | 0.00 | 55 | 1011.0 |
| 20260503173302 | 87 | 217 | 0.9 | 4.3 | 0.00 | 0.00 | 0.00 | 55 | 1012.0 |
| 20260503172301 | 88 | 217 | 0.9 | 4.3 | 0.00 | 0.00 | 0.00 | 55 | 1012.0 |
| 20260503171301 | 89 | 217 | 0.9 | 4.3 | 0.00 | 0.00 | 0.00 | 55 | 1012.0 |
| 20260503170300 | 90 | 217 | 1.7 | 4.3 | 0.00 | 0.00 | 0.00 | 55 | 1012.0 |
| 20260503150257 | 84 | 323 | 0.9 | 0.9 | 0.00 | 0.00 | 0.00 | 61 | 1012.0 |
| 20260503140255 | 81 | 87 | 0.0 | 0.9 | 0.00 | 0.00 | 0.00 | 66 | 1012.0 |